Location: Blairvadach
(56.2780°N, 6.9720°W)
Time: 06:04:19
(UTC+01:00)

OTV 5 (USA 277) - Visible Passes

Search period start: 21 April 2019 00:00
Search period end: 01 May 2019 00:00
Orbit: 310 x 326 km, 54.5° (Epoch: 20 April)

Date Brightness Start Highest point End Pass type
(mag) Time Alt. Az. Time Alt. Az. Time Alt. Az.
21 Apr ? 03:32:25 14° SE 03:32:25 14° SE 03:32:54 10° ESE visible
21 Apr ? 05:03:22 13° SW 05:04:11 15° SW 05:05:49 10° S visible
24 Apr ? 22:10:52 10° S 22:12:43 17° SSE 22:12:48 16° SE visible
25 Apr ? 22:24:52 10° SW 22:27:14 26° SSE 22:28:18 20° ESE visible
25 Apr ? 23:58:35 10° WSW 23:59:14 15° WSW 23:59:14 15° WSW visible
26 Apr ? 22:39:14 10° SW 22:41:50 39° SSE 22:43:12 22° ESE visible
27 Apr ? 00:13:17 10° W 00:14:07 18° W 00:14:07 18° W visible
27 Apr ? 22:53:48 10° WSW 22:56:29 53° S 22:57:45 26° ESE visible
28 Apr ? 00:28:00 10° W 00:28:39 15° W 00:28:39 15° W visible
28 Apr ? 23:08:29 10° W 23:11:11 59° S 23:12:05 35° ESE visible
29 Apr ? 00:42:45 10° W 00:42:58 12° W 00:42:58 12° W visible
29 Apr ? 21:49:03 10° WSW 21:51:42 46° SSE 21:54:20 10° E visible
29 Apr ? 23:23:11 10° W 23:25:52 56° S 23:26:17 48° SSE visible
30 Apr ? 22:03:40 10° WSW 22:06:22 57° S 22:09:03 10° E visible
30 Apr ? 23:37:54 10° W 23:40:25 43° SSW 23:40:25 43° SSW visible
